Wind_Speed
23 24 26 27 28 28 26 24 24 25 25 24 22 19 18 17 18 20 21 21 19 19 19 20 21 21 21 21 20 19 19 19 18 17 17 18 18 17 17 17 18 19 19 19 19 18 18 19 20 20 19 18 19 20 22 24 26 28 30 31 33 35 37
25 27 29 29 29 29 27 24 25 26 26 24 22 19 17 18 19 21 21 20 19 19 19 20 21 21 20 20 20 20 19 19 18 17 18 18 18 17 17 18 19 19 20 19 18 18 19 20 20 20 19 19 20 21 24 26 27 29 31 33 35 36 38
27 29 30 30 30 29 26 25 25 26 25 24 22 19 18 18 19 20 20 20 19 20 20 20 20 20 20 20 20 20 19 19 19 18 18 18 18 17 18 19 19 20 20 19 18 18 19 20 20 20 20 20 21 22 25 27 28 30 32 33 35 37 39
29 30 30 31 30 28 27 25 25 26 25 25 23 20 18 19 20 20 20 20 20 20 20 20 20 21 21 20 20 19 19 20 19 19 19 19 18 18 19 19 20 20 20 19 18 18 19 20 21 21 21 21 22 24 26 28 29 31 32 34 36 38 39
30 32 32 32 30 28 27 26 25 25 25 25 23 20 19 19 20 20 20 20 21 20 20 21 21 22 22 20 18 18 19 19 20 19 19 19 18 18 19 20 20 20 20 19 18 19 20 21 21 21 21 22 23 25 27 29 30 32 33 35 37 38 39
32 34 34 33 30 29 28 26 25 25 25 25 23 21 19 20 21 21 21 20 21 21 21 21 21 21 21 20 19 19 19 19 19 19 19 19 19 19 20 20 20 20 20 19 19 19 20 21 22 22 23 24 25 27 28 30 31 33 34 35 37 38 40
33 35 35 34 31 30 29 27 25 24 25 25 24 22 20 20 21 21 21 21 21 21 21 21 21 21 20 20 20 19 19 19 19 19 19 19 19 20 20 20 20 21 20 20 20 20 21 22 22 23 24 25 27 28 30 31 32 33 35 36 37 39 40
34 36 36 35 33 31 30 27 24 25 25 25 24 22 20 21 22 21 21 21 21 21 21 21 21 21 20 20 19 19 19 19 19 20 19 19 19 20 21 21 21 21 21 20 20 21 21 22 23 24 25 27 28 30 31 32 33 34 35 37 38 39 40
34 35 37 37 34 32 30 26 25 25 25 25 24 22 21 22 22 21 21 22 21 21 21 21 21 21 20 20 19 19 20 20 20 19 19 19 20 21 21 22 22 22 21 21 21 22 22 23 24 25 27 28 30 31 32 33 33 34 36 37 38 39 40
34 36 37 37 34 33 30 26 25 26 25 25 24 23 22 22 21 21 21 22 21 21 20 21 21 21 20 20 20 20 20 20 20 19 19 19 20 21 22 22 22 22 22 22 22 23 24 25 26 27 28 30 31 32 33 34 34 35 37 38 39 40 40
35 36 37 36 34 32 29 25 25 26 25 25 25 24 23 22 21 21 21 21 21 21 20 20 21 21 21 20 19 19 20 20 20 20 19 20 21 22 22 23 23 22 23 23 23 24 25 26 27 28 30 31 32 33 34 35 35 36 37 39 40 40 41
36 35 35 35 33 31 28 25 26 26 25 25 25 24 23 21 22 22 21 21 21 21 20 20 21 21 21 20 20 20 20 20 20 20 20 21 21 22 23 23 23 23 23 24 25 25 26 27 28 29 31 32 33 34 35 36 36 37 38 39 40 41 41
34 35 35 34 32 30 27 26 26 26 25 25 25 24 23 22 22 22 22 21 21 21 21 20 20 21 21 20 20 20 21 21 21 21 21 22 22 23 23 23 23 24 24 25 26 27 28 29 29 31 32 33 34 35 36 37 38 38 38 39 40 40 41
32 33 33 32 30 28 26 27 27 26 25 25 25 24 23 22 22 22 22 21 21 21 21 21 20 20 21 21 21 21 21 21 21 22 22 22 22 23 23 23 24 24 25 26 27 28 29 29 30 31 32 33 34 35 36 38 39 39 39 38 39 40 42
28 30 30 28 27 27 27 28 28 27 25 25 25 24 23 22 23 23 22 22 21 21 21 21 21 21 21 21 21 21 21 21 22 22 23 23 23 23 23 24 24 25 26 26 27 28 29 30 31 32 33 33 34 35 36 39 41 42 38 35 37 40 42
27 28 27 26 26 27 27 28 29 27 26 25 25 24 23 23 23 23 23 23 22 22 22 22 21 21 21 21 22 22 22 22 22 22 23 23 24 24 24 24 24 25 26 27 28 29 30 30 31 32 32 32 33 35 36 40 45 43 37 34 37 40 41
28 28 26 25 27 28 28 29 29 28 27 25 25 24 24 23 23 23 24 24 23 23 22 22 22 21 22 22 22 22 22 22 22 22 23 23 24 24 25 25 25 26 27 27 28 29 29 30 31 31 31 32 33 34 36 39 42 39 33 34 38 40 40
29 28 27 27 28 29 29 30 30 29 27 26 25 24 24 24 24 24 24 24 24 23 23 22 22 22 22 23 23 23 23 22 22 22 22 22 23 24 25 25 26 27 27 27 27 28 28 29 30 30 31 31 32 34 36 37 39 37 34 35 38 39 39
29 28 28 29 30 31 30 31 31 29 28 27 26 24 24 24 25 25 25 25 24 23 23 23 23 23 23 23 23 23 23 22 22 21 21 21 21 22 23 24 25 25 25 25 26 27 27 28 29 30 30 31 33 34 35 36 38 38 36 36 37 38 38
30 30 30 30 32 32 31 32 31 30 29 27 26 25 24 24 25 25 25 25 25 24 24 24 24 24 24 24 24 24 23 22 21 21 20 20 20 21 21 22 23 23 23 24 25 26 27 28 29 29 30 32 33 34 34 36 37 38 37 37 37 37 37
30 30 30 31 33 32 32 32 32 31 29 28 26 25 24 25 25 25 25 26 26 25 25 25 25 25 24 24 24 23 23 22 21 21 20 20 20 20 20 21 21 22 23 24 25 25 27 28 29 29 31 33 33 33 34 36 37 36 37 37 37 37 37
32 31 31 32 33 32 32 33 33 31 30 28 27 25 24 24 25 25 26 26 27 26 26 26 26 25 25 25 24 23 23 22 22 21 21 20 20 20 20 21 21 22 23 24 25 27 28 29 30 30 30 31 32 33 35 36 36 36 37 37 37 37 37
33 32 31 32 33 33 33 33 32 32 30 29 27 26 25 24 24 25 26 27 27 27 27 27 27 26 26 26 25 24 23 23 22 22 22 22 21 21 21 22 23 23 24 26 26 28 29 30 30 30 30 30 32 35 36 35 35 36 37 37 36 36 36
33 32 32 33 34 34 34 33 33 32 31 30 28 27 26 25 24 25 26 27 28 28 28 28 27 27 27 27 26 25 24 23 23 23 23 23 22 22 23 24 25 25 26 27 28 28 29 29 29 30 30 31 34 35 35 35 36 37 36 36 36 36 36
33 33 33 34 34 35 34 33 33 33 31 30 29 27 26 25 25 25 26 27 28 29 30 29 28 28 28 28 27 26 24 24 24 24 24 24 23 24 24 25 26 26 27 27 28 29 29 29 30 30 31 33 35 35 35 36 37 36 35 35 35 36 37
33 33 34 34 35 35 34 33 33 33 32 32 30 28 27 26 25 25 26 28 29 30 30 30 29 29 29 28 28 26 25 25 24 24 24 24 25 25 25 26 26 26 27 28 28 29 30 30 30 31 33 35 36 36 36 37 36 35 34 35 35 36 36
32 32 33 35 36 35 34 33 33 33 33 32 31 29 28 26 25 25 26 28 30 31 31 30 30 30 30 29 28 27 26 25 25 25 25 26 26 26 26 26 26 27 28 28 28 29 30 30 30 32 35 36 37 37 37 37 35 34 34 35 35 36 36
32 31 33 35 36 35 34 34 34 34 34 33 32 31 29 25 24 25 27 29 30 31 31 31 31 31 30 30 29 27 26 26 26 27 27 27 27 27 26 26 27 28 28 28 29 30 30 30 31 34 36 37 38 38 37 36 35 34 34 35 35 35 36
34 33 34 36 37 36 35 35 35 35 35 34 33 32 30 26 25 26 28 29 30 31 32 31 32 32 31 30 29 27 27 27 28 28 28 28 28 28 27 27 27 28 29 29 29 29 30 31 33 35 37 37 38 38 37 36 35 34 34 34 35 35 36
36 35 35 37 37 37 36 36 37 37 36 35 34 33 32 29 27 28 30 30 30 31 32 32 33 33 32 31 29 29 28 29 29 30 30 29 30 29 28 27 27 28 29 29 29 29 31 33 35 36 37 37 38 37 36 35 34 34 34 34 34 35 36
39 37 37 38 38 38 38 39 39 38 37 36 36 35 34 32 31 31 31 30 30 32 33 34 35 35 33 32 32 32 32 32 32 32 32 31 30 29 28 28 28 29 29 29 29 31 33 35 35 36 36 36 36 36 35 34 33 34 33 33 34 35 36
42 39 39 39 40 40 41 41 41 40 39 38 38 37 36 34 33 34 33 32 32 33 34 36 37 36 35 35 36 35 34 34 33 33 33 31 29 28 27 28 29 29 29 29 31 33 34 35 35 35 35 35 35 35 34 33 33 33 33 33 34 36 36
42 41 41 42 42 42 43 43 42 41 40 39 39 39 38 37 36 36 35 34 32 33 34 35 36 36 36 36 37 36 34 33 32 33 34 32 29 27 28 29 29 29 29 30 32 34 34 34 34 34 33 34 34 34 33 32 33 33 32 33 34 36 37
43 43 44 45 45 44 43 42 41 41 41 40 40 40 40 39 37 37 37 35 33 33 35 35 35 35 37 37 37 36 33 32 33 33 32 28 27 27 28 28 28 29 30 32 33 33 33 34 34 34 33 33 33 33 32 32 32 32 32 33 34 36 36
41 41 40 40 40 40 40 39 39 40 41 41 40 41 42 40 38 38 38 36 33 34 36 37 36 35 35 35 37 37 35 32 32 30 26 24 25 27 28 28 30 31 32 33 33 33 33 34 34 33 32 32 32 32 32 32 32 31 32 33 35 36 36
38 38 35 33 35 38 38 39 39 40 41 42 42 42 42 40 40 40 38 36 35 36 37 37 36 34 32 31 33 35 35 32 29 27 26 26 27 28 29 30 32 33 33 33 33 33 34 34 33 32 32 32 31 31 31 32 31 31 32 34 35 36 36
38 37 34 32 33 37 38 39 40 41 42 43 44 44 44 42 40 40 39 37 37 38 37 36 35 34 33 31 30 31 31 30 28 28 28 28 29 30 31 33 34 34 34 34 34 34 34 33 32 31 32 32 31 31 31 31 30 31 33 34 35 36 36
Wind_Direction
276 276 278 283 287 289 291 290 291 292 290 285 283 282 279 275 276 278 281 284 285 287 286 285 283 282 282 282 281 276 272 275 277 275 271 268 267 267 266 263 262 263 265 269 273 280 287 292 297 300 302 304 308 311 311 311 314 318 321 323 324 326 327
276 275 276 281 286 288 289 288 289 291 288 281 279 278 274 272 274 278 282 284 286 287 285 283 282 281 280 280 281 278 275 275 276 274 269 266 267 267 264 262 261 263 265 268 274 282 289 294 297 301 303 306 309 310 310 310 313 316 319 321 323 324 325
275 274 273 278 283 285 286 286 288 289 284 278 275 273 270 271 274 278 282 285 286 286 285 283 281 281 281 280 281 280 277 275 274 272 266 262 263 263 261 260 261 262 265 269 277 285 291 295 299 301 304 307 309 309 308 309 312 315 317 319 321 323 324
272 271 272 276 280 282 283 284 287 285 279 275 274 271 269 271 275 278 282 283 284 285 284 282 280 282 282 280 280 280 278 275 273 269 264 260 260 261 260 259 260 262 265 271 279 286 291 296 299 302 305 308 309 308 307 308 310 313 316 318 319 321 323
269 270 270 274 278 280 282 283 285 282 276 273 273 269 267 269 273 277 279 281 283 283 282 280 281 285 284 280 281 282 278 274 272 270 265 262 262 262 261 261 261 262 266 273 280 286 291 296 299 302 305 307 307 306 306 307 309 312 315 316 318 319 322
267 268 269 272 275 277 280 282 283 279 273 272 271 267 264 266 270 274 277 280 282 282 281 280 282 286 286 284 286 286 280 276 273 270 266 264 265 265 264 263 263 264 269 274 280 286 292 296 299 303 305 306 305 305 305 306 308 311 313 315 316 319 321
266 267 268 270 272 274 277 280 280 275 271 270 269 265 262 264 268 272 275 279 280 280 281 281 282 284 285 286 287 286 282 277 273 271 269 266 267 267 266 265 264 265 270 274 280 286 292 297 300 303 304 304 304 303 303 305 308 310 312 313 315 318 321
266 267 267 267 269 272 275 277 276 272 269 268 268 265 262 262 265 270 275 279 279 280 280 282 283 285 286 286 286 286 283 279 275 272 270 268 266 265 265 264 264 266 270 275 281 287 293 297 300 301 302 302 302 302 303 305 307 309 311 312 315 318 320
266 265 264 265 267 270 273 275 273 271 268 267 266 264 260 260 264 270 275 278 280 281 281 282 283 284 285 286 286 286 285 283 279 274 270 267 265 264 264 265 266 269 273 278 283 288 293 297 299 301 301 301 301 302 303 304 307 309 310 312 315 318 319
263 262 262 263 266 268 271 272 271 269 266 264 263 261 258 260 264 269 274 277 280 282 281 282 284 284 285 285 286 288 288 287 283 277 271 267 265 265 266 267 269 272 276 281 285 289 293 296 298 300 300 301 301 302 304 305 306 308 310 313 316 318 319
261 261 261 263 265 267 268 268 267 266 264 262 260 259 258 259 263 268 273 277 280 281 281 282 283 284 285 285 286 288 289 288 284 278 272 268 266 267 267 269 271 275 279 282 286 289 292 295 297 299 300 301 301 303 305 306 307 309 310 313 316 317 319
261 261 261 264 266 266 265 264 263 263 261 260 259 258 257 258 261 267 271 275 278 279 280 281 283 284 285 285 286 287 288 288 285 279 273 269 267 268 269 271 274 277 281 283 286 290 292 294 296 298 299 300 302 304 305 306 307 309 310 312 315 317 319
261 260 262 266 266 264 262 262 261 259 257 258 258 257 256 257 260 265 270 273 276 277 278 280 281 283 284 284 285 286 288 288 285 280 274 271 269 270 271 273 276 279 281 283 287 289 292 295 296 298 299 301 303 305 306 306 307 308 309 311 314 316 318
259 259 262 265 264 261 260 260 259 257 255 255 256 255 255 256 260 265 269 271 273 275 276 278 280 283 284 284 284 284 287 288 286 282 276 272 271 271 273 275 277 279 281 284 287 290 293 295 296 298 300 302 304 306 307 307 307 307 307 310 314 317 317
256 258 261 262 261 259 258 259 257 255 253 254 255 253 254 256 260 265 268 270 271 273 275 277 280 283 284 284 283 283 286 288 287 283 279 274 272 272 274 275 277 279 282 285 288 291 293 296 297 299 300 303 305 306 308 310 310 307 306 310 316 317 316
254 257 260 261 259 257 256 257 256 253 251 253 253 252 253 256 260 264 267 268 269 271 274 277 281 284 284 283 282 282 284 287 288 286 282 277 275 274 275 276 278 281 284 287 289 292 295 297 298 299 301 304 306 309 313 317 316 311 306 310 316 316 317
255 256 260 262 259 255 254 255 255 252 251 252 252 251 253 256 260 263 266 267 269 271 274 278 281 284 284 282 281 281 283 286 288 288 286 281 277 276 277 278 280 282 285 288 291 294 296 297 298 299 302 305 309 313 316 318 321 319 312 310 314 316 317
254 256 259 262 260 254 251 252 253 251 251 250 250 250 253 256 260 263 265 267 269 272 275 278 281 283 283 282 280 280 281 284 288 290 289 285 281 279 279 280 282 284 287 290 293 295 296 296 297 300 305 308 311 314 314 315 321 324 319 314 315 316 317
253 255 259 261 259 252 248 250 251 250 250 249 249 250 253 257 260 262 265 267 269 272 275 278 280 281 282 281 280 280 280 283 287 290 290 288 285 284 283 284 285 287 289 291 293 293 294 295 299 303 307 309 310 311 311 313 319 321 319 317 317 317 318
251 254 257 259 256 250 246 248 249 248 249 248 248 250 253 257 260 262 265 267 270 272 274 276 278 279 281 281 280 280 280 281 285 288 290 290 289 288 287 287 287 288 289 289 290 292 295 298 302 305 307 308 308 309 310 314 317 318 318 318 318 319 320
249 253 255 256 253 248 245 246 247 247 248 247 248 250 253 257 260 262 265 268 270 271 272 273 275 277 280 281 281 280 280 280 283 286 288 290 290 290 290 289 289 289 288 287 288 293 298 301 303 305 305 305 307 309 310 313 316 316 317 319 319 320 320
247 251 253 254 250 246 244 245 246 247 247 247 248 249 253 256 259 262 265 268 269 270 271 272 274 276 279 281 282 281 280 280 282 284 287 289 290 290 290 290 289 288 287 288 291 295 298 300 301 303 304 305 307 310 312 313 314 316 317 318 318 319 320
247 250 252 252 248 244 244 244 245 247 247 246 247 249 252 255 258 261 265 267 269 269 270 270 272 275 279 282 283 281 280 280 282 283 285 286 288 289 289 289 289 288 289 291 294 295 296 298 300 301 304 307 310 311 312 313 314 316 317 317 317 318 320
249 250 251 250 246 244 244 243 244 246 246 246 246 248 251 254 256 260 263 266 268 269 269 270 271 274 278 281 282 282 281 281 281 282 283 285 287 287 287 288 289 289 291 293 294 294 295 297 300 302 305 309 311 313 313 314 315 316 316 316 316 318 319
249 250 250 247 244 244 244 243 243 245 246 246 246 248 250 252 254 258 263 266 267 268 268 268 270 273 276 279 281 281 281 281 281 282 284 285 285 285 285 287 289 291 291 292 293 295 296 298 300 302 306 310 312 313 313 314 314 315 315 315 315 318 319
247 248 247 243 242 243 243 243 244 245 245 245 247 248 249 250 253 258 261 264 265 266 267 268 270 272 275 277 279 280 280 281 282 283 284 284 284 283 285 287 289 291 291 291 293 295 296 298 300 303 308 311 312 312 313 313 314 314 314 314 316 318 319
244 247 245 242 242 243 244 244 244 244 245 245 247 249 249 250 252 256 260 262 264 266 267 268 269 270 272 274 276 277 279 281 283 284 284 285 284 284 286 288 289 290 290 292 294 295 295 298 302 306 310 311 312 312 313 313 314 314 314 314 316 317 318
243 246 244 242 241 243 244 245 244 244 245 245 247 249 251 251 252 255 259 262 264 266 267 267 267 268 270 272 273 275 278 281 283 284 285 286 286 286 287 287 288 289 290 292 293 293 296 301 305 308 309 310 311 312 312 313 314 314 313 314 315 316 318
244 246 245 242 241 242 244 245 245 244 244 244 246 249 252 253 253 255 258 261 263 265 265 266 267 268 269 270 272 274 277 281 282 283 285 287 287 286 286 287 288 288 289 290 292 295 300 304 306 307 308 309 310 310 311 313 314 313 312 313 315 317 319
244 246 245 242 241 242 243 244 244 244 243 244 246 248 251 254 254 255 256 259 262 264 265 265 265 265 267 269 270 271 275 279 281 281 283 285 286 286 285 285 287 286 287 290 295 299 302 304 304 304 305 307 307 308 310 313 313 312 312 313 315 317 319
243 245 245 242 241 241 241 242 243 243 243 244 245 247 249 251 254 255 256 258 260 262 263 264 263 264 265 266 267 269 272 275 278 280 281 283 284 283 283 284 286 287 290 294 297 299 300 302 302 303 304 305 306 307 310 312 312 312 312 314 316 317 318
242 244 244 242 240 239 240 241 241 242 243 243 245 247 248 249 252 255 257 258 259 262 265 266 266 266 266 267 266 267 270 273 276 277 278 280 281 279 279 283 286 288 291 294 296 298 300 301 301 302 304 305 305 307 310 311 311 312 313 315 315 316 317
245 246 245 243 239 238 239 240 241 242 243 243 244 247 249 250 251 254 257 259 262 265 268 270 270 268 267 267 266 266 268 270 272 277 280 279 276 274 276 281 284 286 289 293 295 298 300 301 301 302 303 304 305 307 309 310 311 313 314 315 314 315 317
249 248 247 244 241 239 239 240 242 244 245 246 246 247 249 250 251 254 256 258 262 266 269 271 272 270 268 265 262 261 264 268 272 280 285 279 270 272 279 283 285 287 290 295 298 299 300 301 301 302 303 304 305 307 309 310 312 313 314 314 313 314 317
251 249 251 250 247 245 246 247 248 249 249 250 250 250 251 252 253 256 257 259 261 264 267 272 274 273 270 268 263 258 258 264 273 280 283 277 272 277 283 285 288 291 295 297 299 299 300 301 301 301 302 303 305 307 309 310 311 312 313 313 313 315 317
249 250 254 255 252 249 249 251 252 253 253 253 254 255 255 254 254 257 260 260 261 263 267 272 274 273 272 273 273 266 259 261 271 277 277 278 280 282 286 289 292 295 297 298 298 299 300 299 298 299 302 304 305 307 308 309 310 311 312 312 313 315 316
249 250 253 255 251 248 247 249 251 253 254 255 256 258 259 257 256 258 260 260 259 261 266 271 271 269 269 272 278 276 266 261 267 274 276 279 283 286 289 293 296 298 298 298 298 299 298 296 296 299 303 304 305 307 308 308 308 309 311 312 313 315 315
Height
5834 5834 5833 5833 5833 5833 5834 5834 5834 5833 5832 5832 5831 5831 5830 5830 5830 5829 5829 5829 5829 5829 5828 5828 5827 5826 5825 5824 5823 5823 5823 5823 5822 5822 5822 5821 5821 5821 5821 5820 5820 5820 5820 5820 5819 5819 5819 5818 5817 5816 5815 5814 5813 5811 5809 5808 5806 5803 5801 5799 5796 5794 5792
5831 5831 5830 5830 5830 5830 5831 5831 5831 5830 5830 5829 5829 5828 5828 5827 5827 5826 5826 5826 5826 5826 5826 5826 5825 5824 5823 5822 5821 5821 5821 5820 5820 5820 5820 5819 5819 5819 5819 5818 5818 5818 5818 5818 5817 5817 5816 5816 5815 5813 5812 5811 5810 5809 5807 5805 5803 5801 5799 5796 5793 5791 5789
5828 5828 5828 5827 5827 5827 5828 5828 5828 5828 5827 5826 5826 5825 5825 5825 5824 5824 5824 5824 5824 5824 5824 5823 5823 5822 5821 5820 5820 5819 5819 5818 5818 5818 5817 5817 5817 5817 5816 5816 5816 5816 5816 5816 5815 5815 5814 5813 5812 5811 5810 5809 5808 5806 5804 5802 5801 5798 5796 5793 5791 5789 5786
5825 5825 5825 5824 5824 5824 5825 5826 5826 5825 5824 5824 5823 5823 5822 5822 5822 5822 5822 5822 5822 5821 5821 5821 5821 5820 5819 5818 5817 5817 5817 5816 5816 5816 5815 5815 5815 5814 5814 5814 5814 5814 5814 5813 5813 5812 5812 5811 5810 5809 5807 5806 5805 5803 5802 5800 5798 5796 5793 5791 5788 5786 5784
5822 5822 5822 5821 5821 5821 5822 5823 5823 5822 5822 5821 5821 5820 5820 5819 5819 5819 5819 5819 5819 5819 5819 5819 5818 5817 5816 5815 5815 5815 5815 5814 5814 5813 5813 5813 5813 5812 5812 5812 5812 5812 5811 5811 5811 5810 5809 5808 5807 5806 5805 5803 5802 5801 5799 5797 5795 5793 5791 5788 5786 5783 5781
5819 5819 5818 5818 5818 5819 5819 5820 5820 5819 5819 5818 5818 5818 5817 5817 5817 5817 5817 5817 5817 5816 5817 5817 5816 5816 5814 5813 5813 5812 5812 5812 5811 5811 5811 5811 5810 5810 5810 5810 5810 5809 5809 5809 5808 5808 5807 5806 5805 5803 5802 5801 5799 5798 5796 5794 5792 5790 5788 5786 5783 5781 5778
5816 5815 5815 5815 5815 5816 5816 5817 5816 5816 5816 5815 5815 5815 5815 5815 5814 5814 5814 5814 5814 5814 5814 5814 5814 5814 5813 5811 5811 5810 5810 5810 5809 5809 5808 5808 5808 5808 5808 5808 5807 5807 5807 5806 5806 5805 5804 5803 5802 5800 5799 5798 5796 5795 5793 5791 5789 5788 5785 5783 5780 5778 5775
5812 5812 5812 5812 5812 5812 5813 5814 5813 5813 5813 5812 5812 5812 5812 5812 5811 5812 5812 5812 5812 5812 5812 5812 5811 5811 5811 5810 5809 5808 5808 5808 5807 5807 5806 5806 5806 5805 5806 5805 5805 5805 5805 5804 5803 5803 5802 5801 5799 5798 5796 5795 5793 5792 5790 5788 5787 5785 5782 5779 5777 5775 5772
5809 5809 5809 5809 5809 5809 5810 5811 5811 5810 5810 5809 5809 5809 5809 5809 5809 5809 5809 5809 5809 5809 5809 5809 5809 5808 5808 5807 5807 5806 5806 5805 5805 5804 5804 5804 5803 5803 5803 5803 5803 5803 5802 5802 5801 5800 5799 5798 5797 5795 5794 5792 5791 5789 5787 5786 5784 5782 5779 5776 5774 5772 5769
5805 5806 5806 5806 5806 5806 5807 5808 5808 5807 5807 5806 5806 5806 5806 5806 5806 5807 5807 5807 5807 5807 5806 5806 5806 5806 5805 5805 5804 5804 5803 5803 5802 5802 5801 5801 5801 5801 5801 5801 5801 5800 5800 5799 5798 5798 5797 5796 5794 5793 5791 5790 5788 5786 5784 5783 5781 5779 5776 5773 5771 5768 5766
5802 5802 5802 5803 5803 5803 5804 5804 5804 5804 5804 5803 5803 5802 5803 5803 5804 5804 5804 5804 5804 5804 5804 5804 5803 5803 5803 5802 5802 5801 5801 5800 5800 5799 5799 5799 5799 5799 5798 5798 5798 5798 5797 5796 5796 5795 5794 5793 5792 5791 5789 5787 5785 5783 5781 5780 5778 5776 5773 5770 5768 5765 5763
5798 5799 5799 5799 5800 5800 5801 5801 5801 5800 5800 5800 5800 5800 5800 5800 5801 5801 5802 5802 5802 5802 5801 5801 5801 5800 5800 5800 5800 5799 5798 5798 5797 5797 5796 5796 5796 5796 5796 5796 5795 5795 5794 5794 5793 5792 5791 5790 5789 5788 5787 5785 5783 5781 5779 5777 5775 5773 5770 5767 5765 5762 5760
5794 5795 5795 5796 5796 5797 5797 5798 5798 5797 5797 5797 5797 5797 5797 5798 5798 5799 5799 5799 5799 5799 5799 5799 5798 5798 5798 5797 5797 5797 5796 5796 5795 5794 5794 5794 5794 5794 5793 5793 5793 5792 5792 5791 5790 5790 5789 5788 5787 5785 5784 5782 5780 5778 5776 5774 5771 5769 5767 5764 5762 5759 5757
5791 5791 5792 5792 5793 5793 5794 5794 5794 5794 5794 5794 5794 5794 5794 5795 5796 5796 5797 5797 5797 5797 5796 5796 5796 5796 5795 5795 5795 5794 5794 5793 5793 5792 5791 5791 5791 5791 5791 5790 5790 5790 5789 5788 5788 5787 5786 5785 5784 5783 5781 5780 5778 5776 5773 5771 5768 5766 5763 5761 5759 5756 5754
5787 5788 5788 5789 5790 5790 5791 5791 5791 5791 5790 5790 5791 5791 5792 5792 5793 5793 5794 5794 5794 5794 5794 5794 5793 5793 5793 5792 5792 5792 5791 5791 5790 5789 5789 5789 5789 5788 5788 5788 5787 5787 5786 5786 5785 5784 5784 5783 5781 5780 5778 5777 5775 5772 5770 5767 5764 5762 5759 5758 5756 5753 5750
5784 5784 5785 5786 5786 5787 5787 5787 5787 5787 5787 5787 5788 5788 5789 5789 5790 5790 5791 5791 5791 5791 5791 5791 5791 5791 5790 5790 5790 5789 5789 5788 5788 5787 5786 5786 5786 5785 5785 5785 5784 5784 5784 5783 5782 5782 5781 5780 5778 5777 5775 5773 5771 5769 5767 5764 5760 5757 5755 5754 5752 5750 5747
5780 5781 5782 5782 5783 5783 5783 5784 5784 5784 5784 5784 5785 5785 5786 5786 5787 5788 5788 5788 5788 5788 5788 5788 5788 5788 5788 5788 5787 5787 5787 5786 5785 5785 5784 5783 5783 5783 5782 5782 5782 5781 5781 5780 5780 5779 5778 5777 5775 5773 5772 5770 5768 5766 5763 5761 5757 5753 5752 5751 5749 5746 5743
5776 5777 5778 5779 5779 5779 5779 5780 5780 5780 5780 5781 5781 5782 5783 5784 5784 5785 5785 5785 5785 5786 5786 5786 5786 5786 5786 5785 5785 5785 5784 5784 5783 5782 5782 5781 5781 5780 5780 5779 5779 5778 5778 5777 5777 5776 5775 5773 5772 5770 5768 5767 5765 5763 5760 5758 5755 5752 5750 5748 5745 5742 5739
5773 5774 5774 5775 5775 5775 5776 5776 5776 5777 5777 5777 5778 5779 5780 5781 5781 5782 5782 5782 5783 5783 5783 5783 5784 5784 5783 5783 5783 5782 5782 5781 5781 5780 5779 5779 5778 5778 5777 5777 5776 5776 5775 5774 5773 5772 5771 5770 5768 5767 5765 5763 5762 5760 5757 5754 5752 5749 5747 5744 5741 5739 5735
5769 5770 5770 5771 5771 5771 5772 5772 5772 5773 5773 5774 5775 5776 5777 5778 5778 5779 5779 5780 5780 5780 5780 5781 5781 5781 5781 5780 5780 5779 5779 5779 5778 5778 5777 5776 5776 5775 5775 5774 5773 5773 5772 5771 5770 5769 5767 5766 5765 5763 5762 5760 5758 5756 5754 5751 5749 5746 5743 5741 5738 5735 5731
5765 5766 5766 5766 5766 5767 5768 5768 5769 5769 5770 5771 5772 5773 5774 5775 5776 5776 5777 5777 5777 5777 5777 5778 5778 5778 5778 5777 5777 5777 5777 5776 5776 5775 5775 5774 5773 5773 5772 5771 5770 5769 5768 5767 5766 5765 5764 5763 5761 5760 5758 5756 5754 5752 5750 5748 5746 5743 5740 5737 5733 5730 5727
5761 5761 5762 5762 5762 5763 5764 5764 5765 5766 5766 5768 5769 5770 5771 5772 5773 5774 5774 5774 5774 5774 5774 5774 5774 5775 5775 5774 5774 5774 5774 5774 5773 5773 5772 5771 5771 5770 5769 5768 5767 5766 5765 5764 5763 5762 5761 5759 5758 5757 5755 5753 5751 5748 5747 5744 5742 5739 5736 5732 5729 5727 5724
5756 5757 5758 5758 5758 5759 5760 5760 5761 5762 5763 5764 5765 5766 5768 5769 5770 5770 5771 5771 5771 5771 5771 5771 5771 5772 5772 5772 5772 5771 5771 5771 5770 5769 5769 5768 5768 5767 5766 5765 5764 5763 5762 5760 5760 5759 5758 5756 5755 5753 5751 5749 5747 5745 5743 5741 5738 5735 5732 5729 5726 5723 5720
5752 5753 5754 5754 5755 5755 5756 5757 5758 5759 5759 5761 5762 5763 5764 5766 5767 5767 5767 5767 5767 5767 5767 5768 5768 5769 5769 5769 5768 5768 5768 5767 5767 5766 5765 5765 5764 5763 5763 5762 5761 5760 5758 5757 5756 5755 5754 5753 5751 5749 5747 5746 5744 5742 5739 5737 5734 5731 5728 5725 5723 5720 5717
5748 5749 5750 5750 5751 5751 5752 5753 5754 5755 5756 5757 5758 5760 5761 5762 5763 5764 5764 5764 5764 5764 5764 5764 5765 5766 5765 5765 5765 5765 5765 5764 5763 5763 5762 5761 5761 5760 5759 5758 5757 5756 5755 5754 5753 5752 5750 5749 5747 5746 5744 5742 5740 5738 5736 5733 5730 5728 5725 5722 5719 5717 5714
5744 5745 5745 5746 5747 5747 5748 5749 5751 5752 5752 5753 5754 5756 5758 5759 5760 5760 5761 5760 5760 5760 5760 5761 5762 5762 5762 5762 5762 5761 5761 5760 5760 5759 5758 5758 5757 5756 5756 5755 5754 5753 5752 5751 5750 5748 5747 5745 5744 5743 5741 5738 5736 5734 5732 5730 5727 5724 5721 5719 5716 5713 5711
5740 5740 5741 5741 5742 5743 5744 5746 5747 5748 5748 5750 5751 5753 5754 5755 5756 5757 5757 5757 5757 5757 5757 5758 5758 5759 5758 5758 5758 5758 5757 5757 5756 5756 5755 5754 5753 5753 5752 5751 5751 5749 5748 5747 5746 5745 5743 5742 5741 5739 5737 5735 5733 5730 5728 5726 5723 5721 5718 5715 5713 5711 5708
5735 5736 5736 5737 5738 5740 5740 5741 5743 5744 5745 5746 5747 5748 5750 5752 5753 5753 5753 5753 5753 5753 5754 5754 5754 5755 5755 5755 5754 5754 5754 5753 5753 5752 5751 5750 5750 5749 5749 5748 5747 5746 5745 5744 5743 5741 5740 5739 5738 5736 5733 5731 5729 5727 5725 5722 5720 5718 5715 5712 5710 5708 5705
5731 5732 5732 5733 5734 5736 5737 5737 5738 5739 5740 5742 5743 5744 5746 5748 5749 5749 5749 5750 5750 5750 5750 5750 5750 5751 5751 5751 5751 5751 5750 5750 5749 5748 5747 5746 5746 5746 5745 5745 5744 5742 5741 5740 5739 5738 5737 5736 5734 5732 5730 5727 5725 5723 5721 5719 5717 5714 5712 5709 5707 5705 5702
5726 5727 5728 5729 5731 5732 5732 5733 5734 5735 5736 5738 5739 5741 5742 5744 5745 5745 5745 5746 5746 5746 5746 5746 5746 5747 5747 5748 5748 5747 5747 5746 5745 5744 5743 5743 5742 5742 5742 5741 5740 5739 5738 5737 5736 5735 5733 5732 5730 5728 5726 5723 5721 5719 5717 5715 5713 5711 5709 5706 5704 5701 5699
5720 5721 5723 5725 5726 5727 5727 5728 5729 5730 5732 5733 5735 5736 5738 5739 5740 5740 5740 5741 5742 5742 5742 5742 5742 5743 5744 5744 5744 5744 5743 5742 5741 5740 5739 5739 5738 5738 5738 5737 5737 5735 5734 5734 5732 5731 5729 5728 5726 5724 5722 5720 5717 5715 5713 5711 5709 5707 5705 5703 5700 5698 5695
5714 5717 5718 5720 5721 5722 5722 5723 5724 5725 5727 5729 5730 5731 5733 5734 5735 5735 5736 5737 5737 5738 5738 5738 5739 5740 5740 5740 5740 5739 5739 5738 5737 5736 5735 5735 5735 5735 5734 5733 5733 5732 5731 5730 5729 5727 5726 5724 5722 5720 5718 5715 5713 5711 5709 5707 5705 5703 5701 5699 5697 5694 5692
5711 5713 5714 5714 5715 5715 5716 5717 5719 5721 5723 5724 5725 5726 5727 5728 5730 5730 5731 5732 5732 5733 5733 5733 5734 5735 5735 5735 5735 5735 5734 5734 5732 5731 5731 5731 5731 5731 5730 5730 5729 5728 5727 5727 5725 5723 5722 5720 5718 5716 5713 5711 5708 5707 5705 5703 5701 5699 5697 5695 5693 5691 5688
5708 5709 5708 5708 5709 5710 5711 5714 5716 5718 5719 5720 5721 5722 5722 5724 5725 5726 5727 5727 5728 5728 5728 5728 5728 5729 5729 5729 5729 5729 5729 5728 5728 5727 5727 5727 5727 5726 5726 5725 5725 5724 5723 5723 5721 5719 5717 5715 5713 5711 5709 5707 5704 5702 5701 5699 5697 5695 5694 5692 5690 5687 5685
5704 5705 5706 5708 5709 5711 5712 5714 5715 5716 5715 5716 5717 5717 5718 5720 5722 5722 5722 5724 5725 5724 5723 5723 5723 5723 5723 5724 5724 5723 5724 5723 5723 5724 5723 5722 5722 5722 5722 5721 5720 5719 5719 5718 5717 5715 5713 5710 5708 5706 5704 5702 5700 5698 5697 5695 5693 5692 5690 5688 5686 5683 5681
5700 5702 5704 5706 5708 5709 5710 5711 5711 5712 5712 5712 5712 5712 5713 5716 5718 5718 5718 5720 5720 5720 5720 5720 5719 5719 5719 5719 5718 5717 5718 5719 5719 5719 5719 5718 5718 5718 5717 5717 5716 5715 5715 5714 5712 5710 5708 5706 5704 5702 5700 5698 5696 5694 5693 5691 5690 5688 5686 5684 5682 5680 5678
5696 5698 5700 5701 5701 5701 5703 5704 5705 5706 5707 5707 5707 5707 5708 5711 5713 5713 5714 5715 5715 5715 5716 5716 5715 5713 5713 5713 5713 5712 5713 5714 5715 5715 5714 5714 5714 5713 5713 5712 5712 5711 5710 5709 5707 5706 5704 5702 5700 5698 5696 5694 5692 5691 5689 5688 5686 5684 5682 5680 5678 5677 5675